Location: Miles
(41.4492°N, 81.6087°W)
Time: 21:22:22
(UTC+00:00)

Courier 1B Rocket - Pass Details

Date: 18 September 2024
Orbit: 920 x 1201 km, 28.2° (Epoch: 09 October)

Event Time Altitude Azimuth Distance (km) Brightness Sun altitude
Rises 00:59:08 0° 256° (WSW) 3,829 9.1 -17.0°
Reaches altitude 10° 01:03:03 10° 235° (SW) 2,932 8.0 -17.7°
Maximum altitude 01:07:03 16° 201° (SSW) 2,581 7.2 -18.4°
Drops below altitude 10° 01:11:11 10° 167° (SSE) 3,036 7.3 -19.1°
Enters shadow 01:11:39 - 164° (SSE) 3,129 7.3 -19.2°
Sets 01:15:23 0° 147° (SSE) 4,038 - -19.9°
